Flag for U.S.A. Weather past 2 weeks in Tempe, Arizona, U.S.A.

Now
68 °F

Passing clouds.


Feels Like: 68 °F
Forecast: 65 / 80 °F
Wind: 7 mph from East

Location: Phoenix Sky Harbor International Airport

Current Time: May 22, 2015 at 6:10:34 AM

Latest Report: May 22, 2015 at 4:51 AM


Visibility: 10 mi

Pressure: 29.81 "Hg

Humidity: 31%

Dew point: 36 °F

Location of TempeLocation

Historic Weather in Tempe — Graph

°F

Tempe temperature yesterday

Maximum temperature yesterday: 90 °F (at 2:51 PM)
Minimum temperature yesterday: 73 °F (at 4:51 AM)
Average temperature yesterday: 80 °F

Past Weeks' High & Low Weather Summary

 TemperatureHumidityPressure
High95 °F (May 11, 2:51 PM)90% (May 15, 3:56 PM)29.97 "Hg (May 15, 3:56 PM)
Low57 °F (May 9, 3:51 AM)6% (May 11, 2:51 PM)29.62 "Hg (May 7, 5:51 PM)
Average75 °F29%29.81 "Hg
* Reported May 7 4:51 AM — May 22 4:51 AM, Tempe, Weather by CustomWeather, © 2015

Note: Actual official high and low records may vary slightly from our data, if they occured in-between our weather recording intervals... More about our weather records

Advertising

Tempe weather history for previous 24 hours

 ConditionsComfort  
Time TempWeatherWind HumidityBarometerVisibility
4:51 AM
Fri, May 22
68 °FPassing clouds.7 mph31%29.81 "Hg10 mi
3:51 AM69 °FPassing clouds.8 mph30%29.80 "Hg10 mi
2:51 AM70 °FPassing clouds.10 mph35%29.80 "Hg10 mi
1:51 AM72 °FPassing clouds.5 mph30%29.80 "Hg10 mi
12:51 AM73 °FPassing clouds.No wind26%29.80 "Hg10 mi
11:51 PM
Thu, May 21
73 °FPassing clouds.9 mph24%29.79 "Hg10 mi
10:51 PM75 °FClear.5 mph24%29.77 "Hg10 mi
9:51 PM76 °FClear.7 mph24%29.77 "Hg10 mi
8:51 PM79 °FClear.12 mph17%29.73 "Hg10 mi
7:51 PM81 °FClear.16 mph16%29.71 "Hg10 mi
6:51 PM84 °FPassing clouds.18 mph10%29.69 "Hg10 mi
5:51 PM86 °FPassing clouds.15 mph12%29.67 "Hg10 mi
4:51 PM88 °FBroken clouds.16 mph13%29.67 "Hg10 mi
3:51 PM88 °FBroken clouds.10 mph12%29.67 "Hg10 mi
2:51 PM90 °FBroken clouds.14 mph11%29.69 "Hg10 mi
1:51 PM89 °FPartly sunny.8 mph11%29.71 "Hg10 mi
12:51 PM86 °FPartly sunny.16 mph13%29.74 "Hg10 mi
11:51 AM85 °FPartly sunny.14 mph13%29.75 "Hg10 mi
10:51 AM84 °FPartly sunny.10 mph17%29.77 "Hg10 mi
9:51 AM82 °FPartly sunny.10 mph18%29.78 "Hg10 mi
8:51 AM79 °FPartly sunny.6 mph23%29.78 "Hg10 mi
7:51 AM75 °FPartly sunny.6 mph28%29.79 "Hg10 mi
6:51 AM73 °FPartly sunny.6 mph29%29.79 "Hg10 mi
Weather by CustomWeather, © 2015

See weather overviewHow to use our weather pages